Погода Горно-Алтайск

Погода Горно-Алтайск : погода сейчас, прогноз погоды и архив. Всё, что Вы хотите узнать о погоде Горно-Алтайск!

Хотите узнать прогноз погоды Горно-Алтайск? Тогда Вам сюда: Погода Горно-Алтайск

Поиск расширенной информации на нашем сайте:

Другие новости

Новости СМИ2

Главная страница сайта

Новости сайта

03.07.2017

Напоминаем, что на нашем специализированном сайте Метеоцентр.Азия вы можете получить высокодетализированные автоматические прогнозы погоды по пунктам России, СНГ и мира в авиационном формате (включающие направление и скорость ветра, видимость, явления погоды, количество и форму облачности, нижнюю и верхнюю границу облачности).


Погода Горно-Алтайск - сегодня

Время (UTC), дата Ветер
(°,м/с) 
Видим.   Явления Облачность Т
(°С)
Тd
(°С)
f(%) Тe
(°С)
Pmin
(гПа)
dP
(гПа)
Po
(мм)
O2
(г/м3)
Тmin Tmax R s Состояние
почвы
18 20.11.17 нст () 10 км    ясно 
-4.5 -6.5 86 -4  1039.1  0.3  751  308           
21 20.11.17 240 (ЮЗ) 10 км    ясно 
-5.6 -8.5 80 -7  1039.2  -0.1  751  309           
00 21.11.17 240 (ЮЗ) 10 км    ясно 
-5.7 -10.4 69 -7  1039.5  752  310           
03 21.11.17 190 (Ю) 10 км    10/8 1000 м кучево-дожд., средняя 
[Cb calv|Ac und]
-3.6 -10.4 59 -7  1039.1  -0.3  751  308  -8.6         
06 21.11.17 210 (ЮЗ) 10 км    10/8 600 м кучево-дожд., средняя 
[Cb calv|Ac und]
-2.3 -8.4 63 -6  1039.2  0.3  751  306           
09 21.11.17 200 (Ю) 7000 м  слаб. ливневой снег  10/9 600 м кучево-дожд., средняя 
[Cb calv|Ac und]
-2.4 -5.4 80 -5  1039.6  0.4  751  306           
12 21.11.17 тихо ()   5000 м    ясно 
-3.4 -6.3 80 -3  1040.4  0.5  753  307           
15 21.11.17 240 (ЮЗ) 9000 м    ясно 
-6.7 -7.5 94 -8  1041.3  1.3  753  311    -1.7       
18 21.11.17 200 (Ю) 10 км    ясно 
-5.5 -9.5 73 -8  1040.1  -0.9  752  309           
21 21.11.17 270 (З) 10 км    ясно 
-5.2 -9.1 74 -7  1039.4  -0.8  752  309           
00 22.11.17 200 (Ю) 10 км    ясно 
-2.7 -10 57 -5  1038.5  -1.2  751  306           
03 22.11.17 240 (ЮЗ) 10 км    10/10 1000 м кучево-дожд. 
[Cb calv]
-2.2 -8.3 63 -3  1038.4  751  306  -7.6         
06 22.11.17 030 (СВ) 10 км    9/9 1500 м кучево-дожд. 
[Cb calv]
-1.1 -7 64 -2  1038.1  0.4  751  304           
09 22.11.17 050 (СВ) 10 км    10/10 1500 м кучево-дожд. 
[Cb calv]
-1.8 -6.7 69 -4  1038.5  -0.2  751  305           
12 22.11.17 090 (В) 10 км    ясно 
-2.4 -6.6 73 -3  1038.6  0.4  751  305           
15 22.11.17 тихо ()   10 км    ясно 
-2.8 -6.4 76 -3  1037.1  -1.1  750  305    -0.3       
18 22.11.17 нст () 7000 м    ясно 
-2.9 -5.1 85 -2  1035.6  -1.7  749  305           
21 22.11.17 тихо ()   7000 м    ясно 
-2.7 -4.4 88 -3  1034.3  -1.4  748  304           
00 23.11.17 нст () 8000 м    ясно 
-2.8 -3.9 92 -2  1033.7  -0.9  748  304           
03 23.11.17 170 (Ю) 10 км    6/0 средняя, верхняя 
[Ac trans|Ci fib]
-3.3 -7.4 73 -4  1033.7  0.4  747  306  -4.2         
06 23.11.17 170 (Ю) 10 км    5/0 верхняя 
[Ci fib]
+0 -7 59 -1  1032.2  -1  747  302           
09 23.11.17 нст () 10 км    ясно 
+2.8 -6.3 51 +4  1030.9  -0.8  746  298           
12 23.11.17 нст () 9000 м    ясно 
-3.7 -7.1 77 -3  1031.8  0.9  746  305           
15 23.11.17 270 (З) 7000 м    ясно 
-5.1 -8 80 -6  1031.9  0.3  746  306    +3.9       
18 23.11.17 260 (З) 10 км    ясно 
-5 -8.1 79 -6  1031.8  -0.4  746  306           
Время (UTC), дата Ветер
(°,м/с) 
Видим.   Явления Облачность Т
(°С)
Тd
(°С)
f(%) Тe
(°С)
Pmin
(гПа)
dP
(гПа)
Po
(мм)
O2
(г/м3)
Тmin Tmax R s Состояние
почвы

Для получения пояснительной информации подведите курсор к названию столбца.

ПОГОДА Горно-Алтайск - архив

Всё, что Вы хотите узнать о погоде Горно-Алтайск - удобно и подробно!

Выберите нужную дату (начиная с 1 января 2015* года) и нажмите кнопку "Найти".
Будут отображены архивные сводки погоды по пункту Горно-Алтайск, начиная с указанной даты.


Отображать данные в формате CSV (для использования в таблицах Excel)


Внимание! Наш архив погоды предназначен исключительно для личного некоммерческого использования в познавательных целях. Если Вам необходимы официальные справки о состоянии погоды (для производственных, юридических, коммерческих и т.п. целей), обращайтесь в органы Росгидромета.

*Примечание: данная дата относится к архиву по метеостанциям СССР (Россия, СНГ, Балтия).
Архив по метеостанциям Зарубежной Европы и Азии (кроме Китая) хранится 10 дней, по другим регионам земного шара (Китай, Африка, Америка, Австралия, Океания) - 1 день.

Горно-Алтайск - район местоположения метеостанции


Название, широта, долгота, высота метеостанции:
Горно-Алтайск 52°ш. 85.9°д. 286 м над ур. моря [Российская Федерация]

Дополнительная информация

В oтличие oт бoльшинства пoгoдных сайтoв мы публикуем пoдрoбную метеoинфoрмацию в детальнoм прoфессиoнальнoм фoрмате.

Характеристики температуры и влажнoсти вoздуха измеряются на высoте 2 м в тени вдали oт зданий и деревьев.
Скoрoсть ветра измеряется на высoте 10 м (на урoвне рoста челoвека скoрoсть ветра ниже в 1.5-2 раза). Если метеoстанция нахoдится в гoрoде или в лесу, тo скoрoсть ветра занижена на 2-4 м/с пo сравнению с oткрытым местoм. Скoрoсть ветра над акватoриями крупных рек и oзёр, а также на вершинах хoлмoв на 2-5 м/с выше, чем в oбычных услoвиях.
Атмoсфернoе давление в разных тoчках местнoсти мoжет значительнo oтличаться oт давления на метеoстанции, в зависимoсти oт услoвий рельефа (при пoдъёме на 10 м давление пoнижается примернo на 1 мм рт.ст.).